Flag for United Kingdom Weather past 2 weeks in Brentwood, England, United Kingdom

Now
56 °F

Cool.


Feels Like: 54 °F
Forecast: 59 / 71 °F
Wind: 8 mph from Northeast

Location: Gravesend-Broadness

Current Time: Sep 15, 2014 at 3:24:32 AM

Latest Report: Sep 15, 2014 at 2:00 AM


Visibility: N/A

Pressure: 30.09 "Hg

Humidity: 95%

Dew point: 54 °F

Location of BrentwoodLocation

Historic Weather in Brentwood — Graph

°F

Brentwood temperature yesterday

Maximum temperature yesterday: 71 °F (at 2:00 PM)
Minimum temperature yesterday: 55 °F (at 6:00 AM)
Average temperature yesterday: 62 °F

Past Weeks' High & Low Weather Summary

 TemperatureHumidityPressure
High72 °F (Sep 8, 4:00 PM)100% (Sep 3, 7:00 AM)30.32 "Hg (Sep 3, 7:00 AM)
Low46 °F (Sep 10, 7:00 AM)42% (Sep 8, 3:00 PM)29.93 "Hg (Sep 6, 4:00 PM)
Average61 °F82%30.13 "Hg
* Reported Aug 31 2:00 AM — Sep 15 2:00 AM, Brentwood, Weather by CustomWeather, © 2014

Note: Actual official high and low records may vary slightly from our data, if they occured in-between our weather recording intervals... More about our weather records

Advertising

Brentwood weather history for previous 24 hours

 ConditionsComfort  
Time TempWeatherWind HumidityBarometerVisibility
2:00 AM
Sep 15
56 °FCool.8 mph95%30.09 "HgN/A
1:00 AM56 °FCool.6 mph95%30.11 "HgN/A
12:00 AM56 °FCool.6 mph93%30.11 "HgN/A
11:00 PM
Sep 14
58 °FCool.7 mph91%30.12 "HgN/A
10:00 PM58 °FCool.7 mph90%30.12 "HgN/A
9:00 PM60 °FCool.8 mph87%30.12 "HgN/A
8:00 PM61 °FCool.10 mph83%30.12 "HgN/A
7:00 PM63 °FMild.13 mph78%30.11 "HgN/A
6:00 PM65 °FMild.14 mph73%30.12 "HgN/A
5:00 PM67 °FMild.15 mph69%30.13 "HgN/A
4:00 PM69 °FMild.14 mph66%30.14 "HgN/A
3:00 PM70 °FMild.16 mph67%30.16 "HgN/A
2:00 PM71 °FMild.15 mph64%30.16 "HgN/A
1:00 PM70 °FMild.15 mph66%30.18 "HgN/A
12:00 PM69 °FMild.14 mph67%30.19 "HgN/A
11:00 AM65 °FMild.15 mph75%30.21 "HgN/A
10:00 AM65 °FMild.13 mph78%30.22 "HgN/A
9:00 AM61 °FCool.12 mph86%30.22 "HgN/A
8:00 AM58 °FCool.9 mph95%30.22 "HgN/A
7:00 AM55 °FCool.5 mph96%30.23 "HgN/A
6:00 AM55 °FCool.6 mph94%30.24 "HgN/A
5:00 AM56 °FCool.6 mph92%30.25 "HgN/A
4:00 AM56 °FCool.5 mph91%30.26 "HgN/A
3:00 AM57 °FCool.3 mph88%30.27 "HgN/A
Weather by CustomWeather, © 2014

See weather overviewHow to use our weather pages